TimeEST,TemperatureF,Dew PointF,Humidity,Sea Level PressureIn,VisibilityMPH,Wind Direction,Wind SpeedMPH,Gust SpeedMPH,PrecipitationIn,Events,Conditions,WindDirDegrees,DateUTC
12:53 AM,60.1,57.0,90,29.95,10.0,West,8.1,-,N/A,,Clear,280,2013-02-28 05:53:00
1:53 AM,59.0,53.1,81,29.95,10.0,WNW,10.4,-,N/A,,Clear,300,2013-02-28 06:53:00
2:53 AM,55.9,48.9,77,29.94,10.0,WNW,9.2,-,N/A,,Clear,300,2013-02-28 07:53:00
3:53 AM,55.0,48.9,80,29.95,10.0,WNW,5.8,-,N/A,,Clear,300,2013-02-28 08:53:00
4:53 AM,55.9,50.0,80,29.93,10.0,NW,6.9,-,N/A,,Scattered Clouds,310,2013-02-28 09:53:00
5:53 AM,57.0,48.9,74,29.96,10.0,NW,6.9,-,N/A,,Clear,310,2013-02-28 10:53:00
6:53 AM,57.0,48.9,74,29.97,10.0,NW,11.5,-,N/A,,Mostly Cloudy,310,2013-02-28 11:53:00
7:53 AM,57.9,48.9,72,29.99,10.0,NW,10.4,-,N/A,,Clear,310,2013-02-28 12:53:00
8:53 AM,59.0,48.9,69,30.00,10.0,NW,11.5,-,N/A,,Mostly Cloudy,320,2013-02-28 13:53:00
9:53 AM,60.1,48.0,64,30.02,10.0,NW,9.2,-,N/A,,Mostly Cloudy,310,2013-02-28 14:53:00
10:53 AM,62.1,48.0,60,30.01,10.0,NW,8.1,-,N/A,,Mostly Cloudy,320,2013-02-28 15:53:00
11:53 AM,68.0,43.0,40,29.99,10.0,NW,8.1,-,N/A,,Partly Cloudy,310,2013-02-28 16:53:00
12:53 PM,72.0,37.9,29,29.96,10.0,Variable,3.5,-,N/A,,Scattered Clouds,0,2013-02-28 17:53:00
1:53 PM,73.0,39.0,29,29.93,10.0,Calm,Calm,-,N/A,,Clear,0,2013-02-28 18:53:00
2:53 PM,72.0,46.0,40,29.91,10.0,Variable,6.9,-,N/A,,Clear,0,2013-02-28 19:53:00
3:53 PM,71.6,46.4,41,29.90,10.0,East,8.1,-,N/A,,Clear,90,2013-02-28 20:53:00
4:53 PM,70.0,46.9,44,29.89,10.0,ESE,8.1,-,N/A,,Clear,120,2013-02-28 21:53:00
5:53 PM,66.9,48.9,52,29.91,10.0,ESE,6.9,-,N/A,,Clear,110,2013-02-28 22:53:00
6:53 PM,64.4,50.0,59,29.92,10.0,SSE,5.8,-,N/A,,Scattered Clouds,160,2013-02-28 23:53:00
7:53 PM,60.1,48.9,67,29.94,10.0,Calm,Calm,-,N/A,,Clear,0,2013-03-01 00:53:00
8:53 PM,55.9,48.0,75,29.95,10.0,West,4.6,-,N/A,,Clear,270,2013-03-01 01:53:00
9:53 PM,57.9,48.9,72,29.95,10.0,West,5.8,-,N/A,,Scattered Clouds,280,2013-03-01 02:53:00
10:53 PM,62.1,50.0,65,29.94,10.0,West,10.4,-,N/A,,Mostly Cloudy,280,2013-03-01 03:53:00
11:53 PM,61.0,50.0,67,29.94,10.0,West,6.9,-,N/A,,Scattered Clouds,280,2013-03-01 04:53:00